Location: Carabito
(9.8355°N, 67.9249°W)
Time: 10:53:22
(UTC+00:00)

SL-12 R/B(2) - Pass Details

Date: 23 May 2024
Orbit: 1194 x 2154 km, 63.4° (Epoch: 20 June)

Event Time Altitude Azimuth Distance (km) Brightness Sun altitude
Exits shadow 08:37:20 34° 225° (SW) 1,868 4.4 -21.7°
Maximum altitude 08:40:42 65° 294° (WNW) 1,341 4.0 -20.9°
Drops below altitude 10° 08:48:40 10° 16° (NNE) 3,414 6.9 -19.2°
Sets 08:51:45 0° 19° (NNE) 4,502 7.6 -18.5°
